Theta_e
354 353 353 352 351 351 351 350 349 348 349 349 350 350 351 351 350 350 350 350 345 334 325 330 337 336 338 344 343 339 339 342 343 343 343 343 346 347 342 339 341 343 346 346 346 346 349 353 350 350 354 350 349 350 346 345 346 347 345 345 351 350 346 346 345 345 344 344 344 343 344 345 346 348 350 349 349 350 349 348 347 346 346 346 346
355 354 352 352 351 352 351 350 350 349 350 351 351 351 351 351 350 348 349 350 345 334 327 328 335 337 336 340 342 341 339 339 341 343 341 342 343 340 335 338 340 341 344 345 346 347 346 349 347 345 352 352 349 350 345 345 350 348 346 347 349 349 346 345 344 345 345 344 344 345 344 344 346 348 348 347 346 347 346 346 345 345 345 345 346
355 354 353 353 352 353 352 351 351 350 352 352 352 353 352 352 351 345 342 346 344 335 329 327 330 335 337 340 341 340 341 339 341 342 341 342 342 335 329 333 338 340 343 344 344 346 345 346 347 346 348 347 347 350 346 345 351 349 346 350 351 349 346 346 345 345 345 343 344 346 344 344 346 347 346 346 345 344 344 344 344 344 344 342 343
355 355 354 353 353 353 353 353 353 352 353 353 353 355 353 353 351 342 334 337 338 333 329 327 328 330 334 341 342 339 342 343 342 344 342 342 344 340 330 328 335 339 342 344 344 345 345 345 349 350 347 344 344 347 346 346 350 349 348 351 353 351 347 345 344 344 345 344 345 344 343 345 346 346 345 344 344 343 344 344 342 344 343 340 343
355 355 354 354 354 354 355 355 355 354 354 354 355 355 355 354 350 339 330 331 333 331 329 329 329 328 330 340 346 342 343 346 345 345 345 343 344 345 339 329 331 338 341 344 346 346 345 344 347 349 347 345 344 347 348 349 351 351 350 350 352 352 348 346 345 344 343 344 346 345 343 344 343 343 343 342 343 342 342 342 340 344 343 340 343
355 355 354 354 354 355 356 355 355 355 355 355 356 356 355 355 349 339 331 329 330 329 327 327 328 328 328 335 343 343 345 347 342 342 346 344 343 345 345 337 329 332 340 344 346 346 345 345 345 347 348 346 345 348 349 349 351 353 353 351 351 350 348 347 345 345 344 341 344 345 343 344 343 343 345 344 345 342 341 341 340 341 342 342 344
355 354 353 353 354 356 356 356 356 356 356 356 356 356 357 354 347 339 335 331 331 329 326 326 326 327 327 329 336 338 339 339 332 335 344 345 344 344 346 345 336 332 340 344 344 345 345 345 345 344 347 349 346 344 348 351 354 355 354 351 349 348 348 350 347 345 345 343 343 344 343 344 343 343 345 345 345 343 342 342 341 341 342 345 345
355 353 354 354 355 356 356 357 357 355 356 357 356 357 357 354 346 340 338 334 334 331 326 326 325 325 326 328 333 335 337 337 329 331 340 344 347 345 345 347 342 334 339 344 343 344 344 344 345 343 345 350 348 345 348 354 356 353 350 348 347 347 348 351 349 345 346 346 345 345 345 344 343 344 345 345 346 345 344 342 342 341 342 343 342
355 353 355 357 356 357 357 357 357 356 356 357 357 357 358 356 349 341 339 337 338 336 332 328 326 326 326 326 330 331 336 342 340 333 334 339 347 348 346 347 346 337 334 342 344 344 344 343 345 344 344 346 347 349 351 353 353 351 348 348 347 348 348 349 347 346 347 347 346 346 347 346 345 345 345 344 347 347 346 343 342 342 343 342 341
354 352 355 358 358 357 358 357 358 356 356 357 358 357 358 359 353 344 340 338 339 339 337 334 331 330 328 326 327 328 331 342 347 343 336 334 339 346 345 344 347 344 337 337 340 342 344 344 344 345 345 345 346 351 354 351 349 347 346 349 349 348 349 349 348 347 344 345 348 348 348 349 347 347 345 345 346 346 346 345 343 342 343 343 342
352 352 355 359 359 358 358 359 358 356 356 357 358 357 358 359 354 346 340 339 337 338 338 336 335 333 330 328 327 328 331 340 348 349 342 334 332 339 342 338 341 347 345 342 339 340 343 344 345 346 347 348 346 347 352 352 349 347 346 348 350 349 350 349 349 348 343 342 346 346 347 349 348 347 346 344 344 346 347 346 344 342 341 342 343
353 353 355 358 359 359 359 359 359 357 357 357 358 358 359 359 355 348 343 340 338 338 337 336 336 335 334 333 332 333 335 341 348 347 341 334 332 335 339 338 335 341 348 349 347 344 343 343 344 346 349 349 347 344 350 354 353 353 351 346 347 350 350 349 347 350 349 346 346 347 345 347 346 345 344 343 343 345 345 345 344 342 342 343 343
353 353 356 359 360 360 360 360 360 359 357 357 359 359 359 360 357 350 345 342 340 339 338 338 337 338 338 337 338 340 339 343 347 346 339 333 333 335 339 338 334 335 341 347 351 351 348 345 343 344 346 347 346 344 347 350 350 354 354 348 346 347 349 350 348 351 354 350 349 348 346 346 345 343 343 342 343 344 343 345 344 343 344 343 342
353 352 356 359 361 360 361 361 361 361 359 358 359 359 360 361 358 352 347 343 341 341 340 340 339 339 341 340 341 343 342 345 348 347 344 336 332 335 339 343 340 336 336 339 346 353 353 348 343 343 345 345 345 344 345 345 344 349 350 346 348 348 346 348 349 352 353 350 349 349 346 347 345 344 344 342 343 343 343 345 346 344 345 344 343
354 354 355 359 362 361 361 361 362 362 360 359 360 360 361 362 359 352 349 346 343 343 342 342 342 342 343 343 345 346 345 348 348 347 348 343 336 335 338 345 348 344 341 339 340 348 353 351 344 343 345 345 346 345 346 345 343 347 346 342 347 349 345 345 349 353 354 351 352 350 346 347 347 344 346 344 344 345 346 346 345 344 345 346 345
352 353 355 361 362 362 362 362 362 363 361 360 360 360 361 363 360 352 348 346 344 344 344 343 343 344 344 344 347 348 348 349 348 344 346 345 341 339 337 339 347 350 349 346 341 341 347 347 343 344 345 345 346 345 345 346 344 345 345 342 344 346 344 345 346 352 355 353 353 350 344 346 351 348 347 349 348 346 345 341 338 341 344 346 348
352 353 357 361 362 362 362 361 362 362 361 361 361 361 362 363 361 355 350 347 345 345 345 344 345 345 346 346 348 349 348 348 346 341 341 343 340 340 340 338 341 349 352 350 345 339 339 341 341 343 345 344 345 346 345 346 344 343 344 342 343 344 343 344 344 347 352 355 355 352 346 345 349 346 344 349 348 338 332 329 329 334 336 336 344
351 353 357 360 362 362 362 362 362 363 362 362 362 362 363 362 361 356 352 347 345 346 344 345 346 346 347 348 347 348 347 347 346 343 340 342 341 339 343 344 342 346 350 351 349 343 337 338 339 340 344 343 343 345 345 346 345 344 344 343 343 343 342 343 345 343 347 354 356 355 351 349 349 348 346 351 351 338 329 330 330 329 329 330 335
349 352 355 358 361 363 362 362 362 363 363 363 363 363 363 362 360 357 352 346 344 346 344 344 346 346 347 348 347 346 347 347 348 348 344 343 345 343 344 348 347 346 345 346 351 349 341 338 338 339 343 342 340 342 343 344 345 344 343 344 344 342 341 341 342 340 341 349 352 353 355 354 354 354 352 353 355 350 341 339 340 336 334 335 335
348 351 351 353 359 361 362 361 361 362 363 364 363 364 363 364 362 359 357 353 350 346 344 343 345 346 347 349 347 345 346 347 346 347 345 342 346 346 345 348 350 350 346 339 344 349 345 339 339 341 345 346 342 340 341 343 344 344 343 345 348 346 341 339 338 337 341 346 345 344 349 351 351 351 349 350 355 356 352 348 348 346 341 339 338
346 350 350 351 357 360 361 361 360 362 363 364 364 364 364 364 363 362 360 358 353 347 344 343 343 345 347 348 348 345 345 346 345 346 345 342 343 345 346 348 349 350 350 343 337 342 345 342 341 344 348 350 348 342 340 341 342 344 342 343 348 349 343 340 338 336 342 347 345 341 342 343 345 346 347 351 355 356 356 353 352 352 350 349 346
344 349 349 350 353 356 359 361 359 360 362 363 363 364 364 364 364 363 362 360 357 351 346 343 343 344 346 346 346 347 345 345 348 348 346 345 343 343 345 348 349 348 349 347 340 337 341 342 343 348 350 352 352 345 342 343 341 342 343 341 344 345 341 340 340 336 336 342 344 342 341 341 343 343 344 349 355 355 356 356 356 356 356 356 354
342 345 346 348 351 356 359 360 360 359 362 363 363 364 364 363 364 365 363 361 359 356 351 346 344 344 345 345 346 347 346 345 349 351 348 349 347 343 342 345 349 349 345 345 344 340 339 337 341 348 349 350 351 344 341 345 343 340 342 341 341 341 339 338 339 336 333 335 337 339 342 345 348 349 344 344 351 354 353 354 355 355 356 356 356
342 342 343 346 349 354 359 360 360 360 361 362 362 364 364 364 364 363 364 362 360 360 357 349 345 344 344 346 346 347 348 347 350 351 350 353 352 347 343 340 344 351 348 344 344 344 342 336 335 343 343 342 345 341 337 342 342 338 339 341 342 341 339 337 336 336 336 335 337 340 343 347 353 356 351 344 347 351 350 350 349 345 343 344 345
341 343 343 342 347 353 357 359 360 360 360 362 362 363 364 363 364 363 363 363 361 361 359 351 346 347 348 347 346 348 351 351 350 353 353 353 355 353 349 342 340 349 353 348 343 344 345 339 334 337 339 336 338 337 336 340 343 340 336 337 340 340 337 335 334 335 337 337 340 342 345 349 355 357 353 349 351 353 349 345 344 340 338 337 335
340 342 342 340 345 353 356 358 361 360 361 362 362 363 363 362 363 364 363 363 362 361 362 356 350 351 349 347 345 348 352 352 350 354 356 355 355 356 354 347 340 345 354 354 347 341 341 339 334 335 336 335 335 335 336 338 343 345 339 334 337 338 335 333 332 333 334 335 337 338 343 349 353 355 356 355 355 354 346 340 338 338 341 342 341
344 345 345 343 347 355 359 360 361 361 360 362 362 362 362 363 363 364 363 363 362 362 363 360 356 355 351 346 344 345 351 353 349 351 357 357 355 356 356 352 345 343 350 356 353 344 338 335 334 334 334 334 334 334 335 335 339 345 345 337 337 340 338 334 333 332 334 339 340 339 342 345 345 345 349 352 354 351 345 339 337 339 343 347 348
347 348 348 349 352 358 362 361 362 361 359 360 363 361 362 362 363 363 363 362 362 362 363 362 359 356 352 345 342 343 348 353 352 351 356 358 357 355 356 356 353 347 348 352 355 352 343 336 333 333 333 333 333 333 335 334 334 340 344 340 336 338 339 337 334 334 336 344 348 348 349 348 344 338 336 340 345 345 342 341 340 343 346 347 347
341 344 346 350 354 359 363 363 361 361 359 359 361 361 361 362 363 364 362 362 363 362 363 364 360 355 350 344 343 343 346 352 355 354 354 357 358 356 355 358 357 351 349 351 353 355 352 345 335 332 333 333 333 333 333 334 333 334 338 340 335 332 335 339 339 337 340 344 346 349 351 351 350 346 337 332 333 335 335 336 338 340 342 343 341
339 343 346 349 352 356 362 364 362 361 359 359 360 362 362 362 362 363 362 362 363 362 363 365 362 356 352 348 345 344 345 350 355 354 352 355 359 358 356 358 358 355 351 351 352 355 356 353 344 336 333 333 334 334 332 333 333 331 332 336 336 330 330 336 338 338 343 346 346 345 346 348 351 349 340 332 330 330 330 330 332 333 335 335 335
342 343 345 348 351 354 361 364 363 362 360 358 359 361 361 362 362 362 362 361 363 363 363 365 364 360 356 353 349 345 344 348 353 353 350 351 356 358 357 358 359 358 352 349 351 353 355 357 354 347 338 333 334 335 333 331 331 331 330 331 332 330 327 330 332 332 335 341 344 345 344 345 345 340 333 329 329 329 329 329 329 329 330 330 330
346 346 351 353 352 351 358 363 361 360 359 358 359 360 362 362 362 361 361 362 363 364 364 365 365 363 359 356 351 346 345 345 347 349 347 346 351 356 359 359 360 358 352 347 349 352 354 355 357 357 352 344 340 337 333 331 330 330 330 330 329 331 329 327 328 330 329 330 335 341 344 347 346 339 330 328 328 327 327 329 328 328 329 329 329
346 349 351 355 355 353 356 361 361 360 358 356 358 359 361 361 361 361 361 361 362 364 364 365 366 364 362 358 353 348 345 344 345 345 345 344 345 351 356 358 359 358 352 347 346 350 353 354 355 359 359 356 353 347 335 330 332 331 330 330 329 333 336 334 329 328 328 328 328 331 336 341 344 342 335 329 328 327 327 328 328 328 329 328 329
350 352 352 356 362 364 359 358 359 362 360 356 356 358 361 361 360 362 361 360 362 364 365 365 366 365 363 362 358 351 346 345 344 343 343 343 343 346 350 354 357 356 350 347 349 352 352 350 351 357 360 359 359 356 345 333 331 332 330 330 330 335 343 347 343 337 332 330 329 328 328 330 331 333 330 327 327 327 327 327 327 328 329 330 331
354 356 358 360 364 365 363 357 356 358 360 360 357 356 360 361 361 362 362 360 362 364 365 366 367 366 364 363 362 357 349 345 345 344 343 343 343 345 347 350 354 356 351 346 349 352 351 347 346 353 359 359 357 358 354 342 333 331 331 330 330 333 338 343 346 342 336 333 331 329 327 326 326 326 326 326 327 327 328 330 329 329 329 330 330
355 356 358 360 362 363 365 364 360 356 356 359 359 356 359 360 362 362 362 361 362 363 365 367 367 366 364 363 363 361 355 348 345 344 344 344 345 346 347 348 351 356 356 351 348 350 350 348 346 348 354 357 357 356 355 347 337 333 333 332 331 331 332 334 335 335 333 332 331 329 328 326 326 326 326 326 326 327 329 331 333 334 334 339 344
355 355 356 359 361 362 363 364 362 356 354 358 359 356 358 360 362 362 362 361 361 364 366 366 366 366 364 362 361 360 356 350 347 347 345 345 345 345 346 347 349 354 358 357 352 350 350 350 349 347 349 352 354 354 351 347 341 337 335 335 334 332 332 331 331 331 330 329 330 330 328 328 327 326 326 325 327 327 327 330 333 334 336 342 347
354 356 357 357 360 363 362 361 359 354 352 357 359 356 358 360 362 364 363 362 362 365 365 364 364 364 363 359 359 358 354 351 349 348 346 345 345 345 345 346 346 349 356 359 358 356 355 352 350 348 347 347 351 352 349 346 344 341 339 339 337 336 335 334 332 332 331 331 330 329 328 328 327 327 326 326 326 327 327 330 331 333 335 337 338
354 355 356 357 359 360 358 357 357 353 349 354 359 358 358 360 362 364 364 363 363 365 364 361 361 362 361 358 358 357 353 351 349 347 347 347 346 345 345 345 346 346 352 358 361 360 359 358 354 352 350 348 349 351 350 347 344 343 342 342 341 340 340 337 334 333 333 332 331 330 329 328 327 327 327 327 327 327 329 330 331 333 336 337 341
353 354 356 357 358 358 357 357 357 353 351 355 359 359 358 360 363 364 364 363 363 362 362 362 361 361 359 358 358 356 351 349 348 348 348 349 348 347 346 346 346 347 350 355 359 360 360 360 359 358 356 354 351 351 351 349 345 343 344 344 344 345 343 341 337 335 334 334 332 330 329 328 327 328 328 327 328 328 328 331 332 333 336 341 349
352 353 355 356 357 360 360 359 356 353 354 356 358 360 359 360 363 364 362 362 363 363 364 364 361 358 358 360 361 357 352 351 351 350 349 350 350 350 348 347 348 350 354 357 359 359 360 361 360 360 360 359 357 354 351 349 346 345 346 348 349 349 348 346 343 339 338 339 337 334 330 329 328 328 328 329 330 329 329 330 331 332 335 342 349
350 353 355 356 357 359 361 359 356 355 357 358 358 360 359 361 363 363 360 360 364 366 365 363 358 357 360 362 361 358 353 355 355 351 349 349 349 349 350 351 352 353 356 358 359 359 360 360 361 360 361 361 361 358 356 352 350 349 349 350 351 352 351 351 350 346 343 343 344 342 338 335 332 329 330 331 331 331 331 331 331 332 335 338 344
349 352 355 357 358 359 360 358 356 356 357 357 359 360 359 361 364 362 360 363 366 366 364 360 356 358 360 361 360 358 354 357 358 353 349 349 348 349 351 351 352 355 358 359 358 358 360 361 361 361 362 363 362 362 361 358 356 354 352 352 352 353 354 354 354 353 351 349 351 352 351 347 343 341 338 337 336 336 335 332 332 334 337 341 345
350 352 354 357 359 360 360 358 356 357 357 358 359 360 361 363 364 362 361 365 366 365 364 361 357 357 359 361 362 359 354 357 361 358 353 351 349 349 352 352 352 356 359 361 361 360 359 361 363 363 364 364 362 363 362 361 359 358 357 356 355 355 356 356 356 357 358 357 357 358 358 356 354 353 349 345 343 342 341 338 339 340 342 346 349
349 352 354 357 360 360 360 359 357 356 357 359 360 360 361 363 364 363 363 364 366 366 364 362 358 357 359 361 362 359 356 360 364 361 355 353 352 351 352 355 356 358 360 363 364 362 361 361 363 364 364 363 363 363 363 362 362 362 361 359 358 357 357 357 357 358 359 359 358 359 359 359 358 356 354 351 349 348 346 346 346 347 348 350 351
348 352 355 358 360 360 361 362 360 357 358 359 359 360 363 365 365 365 364 364 366 365 364 362 361 360 360 362 364 363 361 360 364 363 358 354 354 353 354 358 360 362 362 364 364 364 362 362 364 364 364 363 364 364 364 363 363 363 363 361 360 359 359 358 359 358 359 359 358 358 357 358 358 358 357 356 354 352 350 350 351 351 352 352 354
346 350 354 357 359 361 362 362 362 360 360 360 359 361 364 365 365 365 363 365 367 365 363 364 365 363 363 364 364 364 364 363 365 365 362 359 357 356 358 360 362 362 363 363 363 363 364 364 364 364 364 365 364 365 365 365 364 364 364 363 363 362 361 359 359 359 359 359 359 358 357 357 358 358 358 358 357 354 353 353 353 353 354 354 356
344 346 352 355 357 359 361 362 363 362 362 361 361 362 364 365 365 364 363 366 368 366 365 367 367 365 365 364 363 363 365 366 366 365 365 364 363 362 363 363 360 361 363 364 363 364 365 364 365 365 365 365 366 366 366 366 364 365 365 365 364 365 363 360 360 360 360 359 359 358 358 357 357 357 358 358 357 356 355 354 354 355 355 356 357
342 344 347 350 353 355 358 361 362 363 364 364 363 363 364 365 365 364 364 367 367 366 366 368 368 367 366 364 363 364 365 367 367 366 365 366 365 364 365 366 363 362 363 364 364 364 365 365 365 366 365 366 366 366 366 366 366 366 365 365 365 365 364 362 361 361 361 360 359 359 359 358 357 357 357 357 356 356 355 355 355 355 355 357 358
340 343 345 347 350 353 355 357 360 361 363 365 365 364 364 364 364 364 365 367 367 366 367 368 369 369 367 364 365 366 366 367 368 366 365 366 366 365 365 367 366 364 363 364 364 365 365 366 365 365 365 366 366 366 365 365 366 366 366 366 366 366 365 363 362 362 362 360 359 359 359 358 358 357 357 357 356 356 356 356 355 356 357 358 357
338 341 343 345 346 350 353 355 356 359 361 362 364 364 365 364 365 365 365 367 367 366 367 369 369 369 368 366 366 366 367 367 368 367 366 366 366 366 365 365 367 366 365 365 364 365 366 366 365 364 365 365 365 365 365 365 365 366 366 365 365 365 365 364 363 363 362 361 359 359 359 358 358 357 357 356 356 355 355 356 356 357 357 357 357
Wind_Speed
26 29 31 32 30 30 29 29 31 30 29 29 30 30 29 28 28 28 27 27 28 31 31 28 24 22 20 16 14 14 13 12 11 10 8 8 9 10 8 7 7 6 6 6 5 5 5 3 3 4 1 1 3 4 6 6 7 5 6 8 7 5 5 4 4 5 6 5 4 4 4 4 3 3 3 2 2 2 3 3 3 3 2 2 1
25 28 31 32 31 31 31 30 32 32 31 31 31 31 31 29 30 31 29 28 29 32 32 30 26 23 22 18 15 13 14 13 12 11 9 9 12 12 8 8 8 7 7 6 5 4 3 3 2 3 3 1 2 3 4 7 6 5 7 8 7 6 5 4 5 5 5 4 4 4 4 4 3 3 3 2 3 2 3 4 3 3 2 2 2
25 29 31 33 32 32 32 31 33 33 32 32 32 32 32 30 30 34 34 31 31 32 33 32 29 25 22 19 16 13 13 13 11 11 11 9 12 13 9 9 8 7 7 6 6 5 4 3 3 2 2 2 1 2 3 6 6 6 9 9 6 7 5 4 5 5 4 4 5 4 4 4 4 3 3 3 3 3 3 3 3 3 2 2 3
25 28 31 32 33 33 33 32 33 34 33 33 34 33 33 33 32 36 38 35 34 34 33 32 30 28 24 19 17 14 12 12 12 11 12 11 10 12 11 10 8 7 8 7 6 5 5 4 4 3 3 2 0 1 1 4 5 5 7 9 7 6 6 4 4 5 5 5 4 3 4 4 4 5 5 3 3 3 4 3 2 2 2 2 4
26 28 30 32 33 34 33 33 33 34 34 35 35 35 35 34 35 38 39 38 37 36 34 33 31 30 27 20 17 16 12 12 14 13 13 13 11 11 12 11 9 8 8 7 7 6 5 5 5 4 4 3 1 0 0 1 3 4 5 7 6 5 6 5 4 4 4 5 5 3 3 4 5 5 5 3 1 2 4 2 2 2 2 2 2
26 28 30 32 33 33 33 33 33 34 35 35 35 36 35 35 37 39 39 39 38 37 37 35 33 31 30 25 21 20 17 17 18 15 13 13 12 11 11 12 10 9 9 8 8 7 6 6 5 5 4 3 3 2 1 1 2 3 3 4 4 5 7 6 5 4 3 4 6 4 3 4 4 3 4 4 2 1 2 1 1 2 2 1 1
27 29 31 33 34 35 35 34 35 35 35 34 34 35 35 36 39 40 40 40 38 38 38 37 35 33 32 30 26 24 23 22 23 17 13 12 12 11 11 12 12 10 10 10 9 8 7 6 6 6 4 4 3 3 2 1 1 0 1 3 3 5 7 7 5 3 3 4 4 3 2 2 2 3 3 3 3 3 2 2 2 1 2 2 1
30 31 33 35 36 37 37 36 36 34 33 33 34 34 35 37 40 41 41 41 39 39 39 38 37 35 34 31 28 26 24 23 24 21 16 13 12 12 12 11 13 12 11 11 11 9 8 7 7 6 5 5 4 3 2 1 3 3 1 3 4 5 7 7 5 4 3 3 3 3 2 2 3 3 3 3 2 1 2 3 3 1 1 1 0
29 31 34 36 38 38 38 37 35 33 33 34 34 34 34 36 39 41 41 41 40 40 40 39 38 37 36 33 30 28 24 21 20 22 20 17 15 14 13 13 13 13 12 12 12 11 10 9 8 7 7 6 5 3 2 3 5 4 1 2 3 4 5 5 5 5 5 3 3 4 3 2 2 2 2 2 1 2 2 4 3 2 2 2 1
26 31 35 36 38 38 37 36 35 33 33 33 32 32 33 35 38 41 41 41 41 41 40 39 38 37 36 35 33 31 27 22 18 20 22 21 19 17 16 16 14 13 14 14 14 12 11 10 9 8 8 7 6 5 5 6 6 5 2 1 1 3 4 3 3 4 5 4 3 3 4 3 2 2 2 2 1 2 3 2 2 2 2 2 1
29 33 33 33 34 34 34 35 35 34 33 32 32 32 33 35 38 41 41 41 41 41 41 39 38 38 36 36 34 32 29 25 21 20 22 23 22 20 19 18 17 14 13 14 16 15 13 12 10 9 8 8 8 7 6 5 5 5 4 3 2 2 3 3 3 3 3 4 3 3 3 3 2 2 2 1 1 0 1 1 2 3 3 2 2
30 31 30 30 31 32 33 34 35 35 34 34 34 33 34 35 38 40 40 40 41 41 41 40 39 38 36 35 34 32 30 26 24 24 25 26 24 22 20 20 19 17 15 14 15 16 15 14 12 11 10 9 9 8 7 6 5 5 6 5 4 3 3 3 3 3 2 2 3 2 2 3 3 2 2 1 0 1 1 2 2 3 2 2 2
27 27 27 29 32 33 34 34 35 36 35 36 35 34 34 35 37 40 40 40 40 40 40 39 39 38 36 36 34 32 30 27 26 26 27 28 26 23 22 21 21 20 18 17 15 15 16 16 14 13 12 11 10 9 9 9 8 8 8 6 5 4 4 4 3 3 3 3 3 3 3 3 3 2 2 2 1 1 1 2 3 3 2 2 2
28 27 27 30 32 34 34 35 36 36 36 36 36 35 35 35 38 40 40 40 40 40 39 39 39 38 36 36 34 32 30 27 26 26 27 29 28 25 23 21 21 21 20 19 17 16 16 17 16 14 13 11 11 11 10 10 9 9 8 7 6 5 5 5 4 4 4 4 3 4 4 3 3 2 2 2 2 2 2 3 3 3 3 3 2
28 28 29 30 32 33 34 35 36 37 37 36 36 36 35 36 39 41 39 40 40 40 39 39 39 38 36 35 33 31 29 25 25 27 27 28 29 27 25 22 20 20 20 20 19 18 17 17 16 15 14 13 12 12 11 11 10 9 8 7 7 7 6 6 6 5 5 5 4 5 4 3 3 3 2 2 2 2 2 2 3 3 3 3 3
29 29 29 29 31 32 33 35 36 36 37 37 37 37 37 36 39 42 41 40 41 40 40 40 39 38 37 36 33 31 29 26 26 28 28 28 28 28 27 25 21 18 18 19 20 19 19 19 17 15 15 14 14 13 12 12 11 10 9 8 8 8 7 6 7 6 6 6 6 5 4 4 4 4 4 3 4 5 5 5 4 3 3 3 3
29 29 29 29 30 32 33 34 35 36 38 39 39 40 40 39 40 42 42 41 41 40 40 40 39 39 38 37 34 31 30 29 28 29 29 28 29 28 27 26 24 20 18 19 20 20 20 20 19 17 16 16 15 14 14 13 12 11 11 10 9 8 8 8 7 8 7 7 7 7 6 5 6 6 5 5 7 7 6 5 4 4 5 5 4
26 27 26 28 30 32 33 33 35 37 38 39 40 40 41 40 40 42 42 42 42 40 40 40 40 40 39 38 36 33 31 30 28 29 29 28 29 29 26 25 24 23 20 20 19 20 20 20 20 19 17 17 17 15 15 14 13 12 11 11 10 10 10 9 9 9 8 8 8 8 7 6 6 6 5 5 8 8 5 5 6 6 6 6 5
26 25 23 25 29 32 33 34 34 36 37 38 39 39 39 39 40 41 42 43 42 41 41 42 41 41 40 39 36 34 32 30 29 29 29 29 28 28 27 24 23 23 23 22 20 20 21 21 21 21 19 18 18 17 16 15 14 14 13 12 12 12 11 11 11 10 10 10 10 10 9 8 8 7 6 6 8 10 8 6 7 8 7 7 7
26 27 25 26 29 33 34 35 35 35 36 36 37 38 38 38 39 40 40 40 41 42 42 43 43 42 41 39 37 34 33 32 31 30 30 29 28 27 26 25 23 23 24 25 24 21 21 22 22 21 20 19 19 18 17 17 16 15 15 14 13 13 12 12 12 12 11 11 11 11 10 10 10 9 9 8 8 11 10 8 8 10 9 9 9
25 28 29 28 28 31 34 33 33 33 33 34 36 37 37 37 38 39 39 40 42 43 43 44 44 43 42 41 39 36 34 33 32 31 31 30 29 28 27 25 24 24 23 25 26 24 22 22 22 21 20 19 19 19 18 18 17 16 16 15 14 14 13 12 12 12 12 12 11 11 11 11 11 11 10 9 9 10 11 10 9 10 10 10 11
27 28 28 26 26 30 32 32 31 32 33 34 35 36 37 37 38 38 39 40 41 42 44 45 45 44 44 43 41 38 36 34 32 31 32 30 29 30 28 26 25 25 25 24 25 26 25 24 22 21 20 20 20 21 20 19 18 17 17 16 16 16 16 14 14 13 13 13 13 12 11 12 12 12 12 11 10 10 11 10 10 11 11 11 12
27 28 27 27 30 31 31 32 32 32 34 35 35 36 37 38 37 37 39 40 40 40 42 44 45 45 45 44 42 39 37 36 34 32 32 30 30 31 30 29 27 26 26 26 25 25 26 26 24 22 23 22 22 23 22 20 20 19 18 18 17 18 18 17 17 16 14 14 13 13 12 12 12 12 12 12 11 12 12 12 12 12 12 11 12
26 27 28 29 30 30 29 31 33 33 34 35 36 36 36 36 37 37 39 40 39 39 41 44 46 46 45 44 42 40 38 37 35 34 32 30 30 30 30 31 29 26 26 28 27 26 26 27 27 26 26 25 24 24 23 21 22 22 20 19 19 19 19 18 18 17 15 14 14 13 13 13 13 13 13 13 12 13 13 13 14 14 13 13 14
26 26 27 27 27 27 29 32 35 35 35 36 37 36 36 36 37 38 38 38 39 39 40 43 46 45 44 44 43 41 38 38 36 34 33 31 29 28 29 31 31 28 25 27 28 28 27 29 29 28 28 28 27 26 24 22 22 23 23 22 21 21 21 20 19 17 16 16 15 15 15 14 14 14 15 14 13 13 14 14 14 14 14 15 16
26 24 25 26 26 30 32 34 36 35 34 35 36 35 35 35 36 36 35 37 38 38 39 42 43 44 44 45 45 42 39 39 38 35 32 32 30 28 28 30 31 30 27 26 28 30 30 30 30 30 30 29 28 27 26 24 22 22 23 22 22 22 22 22 21 20 19 18 18 18 17 16 16 16 15 15 14 14 15 15 15 15 15 16 17
18 17 18 19 22 29 33 33 34 33 31 33 34 34 34 34 35 34 33 35 37 37 38 40 41 42 44 46 46 45 42 40 39 37 32 31 30 29 28 28 30 30 29 27 27 29 31 32 31 30 30 30 29 28 27 26 24 23 23 22 22 22 22 22 21 21 19 18 18 19 19 19 19 18 17 16 15 16 16 16 17 17 16 16 16
9 10 12 14 17 23 28 30 31 30 30 31 33 34 34 34 34 33 32 34 36 37 38 40 40 41 44 47 47 45 43 40 39 38 34 30 30 30 29 28 29 30 30 28 27 27 30 32 32 31 31 30 30 29 29 28 26 25 24 24 23 22 22 22 22 21 20 19 18 18 19 19 19 19 18 17 17 17 17 17 18 17 17 17 17
11 11 13 15 17 21 25 28 29 30 30 30 31 33 33 33 34 34 34 34 36 37 38 39 41 43 45 46 46 45 44 41 38 38 36 33 31 31 30 29 29 30 30 29 27 26 27 30 32 32 31 31 31 31 30 29 28 27 26 25 25 24 23 23 22 22 21 20 20 19 19 19 20 20 20 19 18 17 18 18 18 19 19 19 20
8 9 12 15 17 19 23 26 28 29 30 30 30 32 33 34 35 36 35 35 36 37 38 39 40 43 45 45 45 45 44 41 39 39 38 36 33 31 31 31 30 30 30 29 29 27 26 27 30 32 32 32 32 32 31 30 28 28 27 26 27 27 25 24 24 23 22 21 21 20 20 20 21 22 23 21 19 18 19 19 19 20 21 22 22
4 2 2 6 11 15 20 24 27 29 30 30 30 31 33 33 34 35 36 35 36 38 39 39 40 42 44 44 45 45 44 43 41 40 41 38 35 33 33 32 31 31 31 31 30 29 27 26 27 29 31 32 33 33 32 30 28 27 26 26 27 28 27 26 26 26 25 23 22 21 21 21 22 24 25 23 22 21 21 21 22 22 23 24 25
9 9 8 6 7 12 17 22 25 27 29 30 30 30 32 33 34 36 36 35 36 37 38 38 38 40 43 44 44 45 45 45 44 42 42 41 38 36 34 34 33 33 33 33 32 31 30 28 25 26 28 30 32 33 33 30 28 27 26 26 27 27 28 28 27 27 27 27 25 23 22 21 22 24 25 25 24 23 22 22 23 24 25 26 27
11 11 11 11 9 10 14 19 23 25 27 30 31 31 33 34 34 35 35 35 35 35 37 38 37 39 42 44 44 45 44 45 45 44 43 42 41 39 38 36 35 35 35 34 33 32 32 30 28 25 26 27 27 30 33 32 29 27 26 26 26 27 27 27 28 28 28 28 28 26 25 24 23 24 26 27 27 26 24 24 24 25 26 27 28
11 11 11 11 11 11 12 15 19 24 27 29 31 32 32 32 32 33 34 35 35 34 36 37 36 38 41 40 41 44 45 44 45 45 44 42 42 42 41 39 37 36 36 36 34 32 32 33 31 28 26 26 25 27 31 31 29 28 27 26 27 26 25 25 25 27 28 29 29 28 28 28 27 27 28 29 29 29 28 27 26 27 27 27 28
12 12 12 13 13 13 14 14 16 21 25 27 29 31 31 30 32 34 35 36 36 35 35 36 36 37 39 36 33 38 44 45 45 45 45 43 43 43 42 41 38 36 37 38 36 34 34 35 35 31 28 27 26 27 29 30 30 28 28 28 28 29 28 27 27 28 29 30 30 30 30 30 29 29 30 29 30 30 29 28 27 28 28 28 28
15 16 16 15 15 15 16 16 17 19 23 27 30 31 31 31 33 35 36 36 36 36 35 36 37 38 39 36 31 32 40 45 45 45 46 45 43 43 43 42 39 35 35 37 37 36 35 36 36 34 32 29 28 28 30 32 31 29 29 29 31 32 33 32 32 32 32 32 32 32 32 31 31 31 30 30 30 30 29 28 26 26 26 25 25
18 18 18 18 18 17 17 17 18 19 21 26 30 31 31 32 33 35 36 37 37 37 37 38 39 39 39 38 35 34 38 43 44 45 46 46 45 44 43 43 42 37 33 34 36 36 36 36 36 35 34 32 31 31 33 34 34 32 31 30 32 33 34 35 35 35 35 35 35 35 34 34 34 33 32 31 30 30 30 29 28 27 27 25 25
19 19 20 20 19 19 18 16 17 18 21 25 29 32 33 34 35 35 37 39 39 39 40 41 41 40 40 40 40 39 41 42 43 44 45 46 45 45 44 43 43 40 34 31 31 33 34 35 35 36 35 34 32 32 34 35 35 34 32 31 32 33 34 35 36 36 37 37 37 37 36 36 36 35 33 32 31 31 31 30 29 29 28 28 28
19 20 21 21 22 22 20 17 16 18 21 24 29 32 34 35 36 37 38 39 40 41 43 44 42 40 40 40 40 41 41 40 41 43 44 45 45 44 43 43 42 42 37 31 28 29 30 31 33 34 34 34 33 32 34 35 35 34 33 31 31 32 33 34 35 36 37 38 38 39 38 38 37 36 35 34 33 32 32 31 30 29 29 29 28
20 20 20 21 22 22 20 17 16 18 20 24 29 33 34 36 37 37 38 39 42 43 43 42 41 39 38 38 38 39 40 39 39 41 42 42 43 42 42 42 41 40 38 33 29 28 27 28 29 29 30 32 33 33 34 35 35 34 32 30 30 31 32 33 33 35 36 37 38 39 39 39 38 37 36 35 34 33 33 32 31 31 30 28 25
20 19 19 20 20 19 18 16 16 17 19 24 29 32 34 36 36 36 39 40 41 41 39 38 39 39 37 36 36 37 38 38 37 39 40 40 40 39 39 40 39 37 34 31 29 28 27 26 27 26 26 28 30 32 34 34 34 33 31 30 30 31 31 31 32 34 34 35 36 37 39 39 38 37 36 36 35 34 33 33 34 33 32 30 27
17 16 16 18 19 18 16 14 14 15 19 24 28 32 34 35 36 37 39 38 36 36 38 39 39 38 36 35 35 35 36 35 35 37 38 38 38 38 37 37 36 34 31 30 30 29 27 25 25 25 25 25 26 28 31 32 32 32 31 30 29 30 30 30 30 32 33 33 33 34 36 37 37 37 36 35 35 34 34 35 35 34 33 33 32
15 15 15 16 17 17 14 13 13 15 19 23 27 32 33 34 36 37 35 31 32 35 37 39 39 37 35 34 34 34 34 32 33 36 37 37 37 36 35 35 34 32 30 30 30 30 28 25 24 24 24 25 25 26 27 29 30 30 30 30 28 28 29 29 29 31 31 31 30 29 30 32 32 33 33 32 32 32 33 35 34 33 33 33 33
13 12 11 12 14 14 12 12 13 14 18 22 26 30 31 32 34 34 30 28 30 34 36 37 37 37 35 33 32 33 32 30 31 34 35 35 35 35 34 34 33 31 29 28 28 30 29 26 24 23 23 24 25 25 26 28 28 28 29 28 27 27 28 28 29 28 25 24 25 25 25 26 26 27 28 29 29 30 32 32 32 32 32 31 31
13 8 8 11 12 9 9 9 12 15 17 21 24 27 29 29 28 28 28 27 29 32 34 36 36 35 34 32 30 31 31 29 29 31 33 33 33 33 32 32 31 30 28 27 26 27 27 26 24 23 23 23 23 23 24 25 25 25 26 27 28 28 28 28 29 28 24 24 26 26 24 25 25 25 25 26 27 29 30 30 30 30 30 29 29
15 8 4 10 11 4 6 5 8 14 18 21 23 24 26 26 25 25 27 27 28 31 33 33 33 33 32 30 28 27 28 28 27 28 30 31 30 30 31 30 29 28 27 26 25 24 24 24 24 23 23 23 23 22 23 24 24 23 23 24 25 27 29 28 28 27 28 29 30 29 27 27 27 26 26 26 27 28 29 29 29 28 28 28 26
15 12 7 8 11 5 1 1 3 9 13 17 20 21 22 24 24 25 26 27 28 30 31 30 29 29 30 29 27 26 25 25 26 25 26 26 26 26 27 28 28 27 27 26 25 24 24 24 23 23 22 22 22 23 23 24 25 24 23 22 21 22 26 28 28 27 28 29 31 31 31 30 29 28 28 29 29 29 29 29 28 28 27 25 23
16 16 13 11 12 11 6 3 3 6 9 13 16 18 20 23 24 24 26 27 27 28 28 27 26 27 27 27 27 25 24 24 25 24 22 23 24 24 25 27 28 27 26 25 26 25 25 24 23 22 21 22 23 23 24 24 26 26 24 23 21 20 22 27 29 29 28 27 29 31 32 32 32 31 31 31 31 31 31 30 29 28 26 23 23
16 17 16 15 15 14 11 8 5 4 7 10 13 15 16 20 22 24 25 26 25 25 26 25 25 25 26 26 25 25 24 23 23 23 23 23 25 25 24 24 25 26 26 26 25 25 25 24 23 22 23 23 24 24 25 25 25 24 23 22 22 21 21 25 28 28 27 28 29 30 31 33 35 34 33 33 34 34 33 32 32 30 26 24 26
18 16 17 19 19 17 15 13 10 7 7 9 11 14 15 17 19 21 24 25 24 23 24 25 24 24 24 25 25 23 24 23 22 24 27 27 27 28 27 26 25 27 28 27 26 26 26 25 24 24 25 24 24 24 23 23 23 23 21 20 19 17 17 20 23 25 26 28 30 32 31 33 35 35 34 35 35 35 34 34 33 30 27 26 28
20 17 17 20 21 21 20 18 14 9 6 7 9 10 13 15 17 19 22 24 24 24 23 24 24 23 23 25 24 23 24 24 23 24 27 28 28 28 28 28 28 28 28 28 29 29 28 26 25 26 26 25 24 23 21 20 21 22 21 21 20 18 17 17 19 23 27 30 32 33 33 33 35 35 35 35 33 31 32 33 32 30 29 30 29
Wind_Direction
185 185 186 184 183 183 183 184 185 186 186 184 184 184 184 185 183 183 185 185 195 204 203 200 198 197 194 191 197 199 196 198 197 194 195 195 203 219 221 207 205 199 198 203 203 194 174 163 148 149 171 14 69 72 61 64 71 77 91 92 87 94 96 97 100 101 111 112 106 107 92 84 90 98 105 110 111 129 129 119 126 130 115 120 135
186 185 186 184 184 183 183 184 185 186 186 185 185 186 185 187 187 188 187 186 196 206 206 204 202 201 199 195 196 200 203 204 204 203 199 205 223 232 229 222 214 205 208 209 212 220 196 189 201 157 165 202 97 83 59 61 64 71 87 83 78 90 93 105 108 94 99 113 113 117 108 93 79 85 101 103 106 116 120 112 110 118 100 97 124
186 185 186 185 184 183 183 185 186 186 186 185 186 187 186 187 191 195 196 194 199 207 209 209 207 205 203 198 196 198 205 208 205 209 204 205 237 249 239 231 228 213 214 218 214 219 217 208 210 206 206 203 100 76 42 51 59 64 83 90 79 76 84 101 110 102 100 109 113 118 125 112 90 107 118 104 111 112 123 129 104 115 136 107 112
188 187 187 186 185 184 184 184 185 186 186 187 186 187 188 188 193 201 203 202 204 209 212 212 211 211 208 200 198 198 203 206 201 207 210 203 225 251 247 237 233 223 219 219 216 215 219 215 202 218 237 238 134 102 37 47 64 60 76 96 93 84 93 94 104 114 110 113 118 116 132 130 114 125 127 118 131 116 122 140 104 137 238 30 92
191 190 188 188 187 186 186 184 185 186 187 188 188 188 190 189 195 205 208 207 208 211 213 213 213 214 212 202 196 198 197 200 200 203 212 210 214 238 252 248 237 230 226 217 215 217 214 219 213 214 234 244 236 203 316 32 66 53 62 89 93 96 108 108 106 107 112 127 125 125 133 100 77 94 95 87 121 122 127 140 79 155 251 3 96
194 193 191 190 189 187 187 186 186 188 188 189 189 190 192 192 199 208 211 210 210 213 216 216 215 216 215 209 200 200 197 202 211 208 210 218 215 221 244 256 248 236 232 221 215 219 215 218 225 220 231 240 231 229 252 307 59 54 51 70 79 98 112 116 115 109 115 121 109 114 119 68 56 77 68 65 67 77 134 170 88 151 234 347 85
196 198 195 192 190 187 188 188 188 189 189 189 189 190 192 197 205 210 213 213 212 214 217 218 219 218 219 217 211 211 209 214 225 220 208 218 219 213 225 247 252 239 231 227 218 219 220 218 227 226 224 239 246 242 240 17 34 124 93 89 85 99 110 111 121 125 115 115 109 111 109 77 98 112 80 83 84 58 84 155 144 153 230 211 139
197 200 196 191 189 188 189 190 190 189 189 188 189 190 191 199 209 212 214 215 215 217 219 219 221 221 222 221 217 217 218 221 230 228 215 212 214 212 211 227 245 240 227 227 223 219 221 220 226 230 222 225 238 244 229 192 225 240 165 103 94 101 111 116 136 140 111 127 145 137 126 104 109 104 94 103 90 48 90 128 133 93 108 161 110
198 201 198 190 188 189 190 190 190 190 189 189 189 190 190 197 209 214 215 217 217 219 220 220 222 223 224 224 222 222 222 219 226 232 227 218 212 211 206 209 233 244 233 227 225 220 221 221 223 228 226 224 227 223 222 221 229 241 230 109 101 102 110 119 135 136 128 147 159 146 145 132 115 119 120 99 67 329 40 90 98 77 90 94 48
202 206 201 190 188 189 189 189 189 189 190 190 189 189 190 193 205 214 216 217 219 220 222 222 223 224 225 225 226 227 226 218 213 224 231 229 222 217 214 211 219 238 239 230 227 223 221 222 221 225 227 225 218 201 206 224 233 239 231 179 130 110 114 120 124 133 136 146 167 163 146 137 133 135 147 140 115 341 3 55 63 47 90 96 42
204 210 202 191 188 188 188 188 189 189 189 189 189 189 190 193 204 213 215 217 219 220 223 224 224 225 226 226 227 228 228 220 208 212 226 231 229 224 224 225 222 224 230 231 230 226 222 223 221 221 223 222 218 206 201 215 232 245 241 212 181 153 138 133 137 151 138 134 163 178 143 142 158 150 150 150 117 155 298 317 17 38 53 60 28
204 209 200 189 188 187 188 189 189 188 189 189 189 189 189 192 203 211 214 216 218 220 222 223 225 226 226 227 228 228 228 221 211 214 225 231 231 226 226 231 231 222 217 221 227 226 224 224 222 221 219 218 219 211 199 198 202 223 242 230 197 185 177 162 156 164 164 135 150 176 170 167 182 190 186 179 124 198 273 304 350 21 12 25 20
203 208 200 189 187 188 189 189 189 189 189 190 189 189 189 191 202 211 213 215 216 219 221 222 224 225 225 226 227 227 225 220 215 217 226 232 233 228 225 230 235 231 222 218 217 219 222 224 222 221 220 216 216 212 205 203 195 199 225 232 211 197 189 186 177 170 191 190 168 185 202 197 192 198 213 202 199 228 252 289 323 354 341 349 358
198 203 200 193 187 188 189 188 189 189 190 190 189 189 189 190 201 211 214 215 216 217 219 220 222 223 224 225 226 225 220 216 216 217 222 230 233 230 226 226 231 235 231 226 219 212 216 224 222 219 221 217 214 214 211 213 207 203 218 224 219 220 205 195 194 188 204 205 187 193 191 202 214 196 202 212 220 250 273 295 311 321 310 321 330
195 199 201 195 188 188 189 189 190 190 190 191 190 190 190 191 202 211 212 213 215 216 217 219 220 221 222 223 223 220 217 212 214 216 217 224 230 231 228 222 223 229 230 229 226 216 212 220 220 216 218 216 213 215 212 214 215 214 223 222 218 226 219 206 206 203 214 216 210 213 195 192 221 212 212 238 255 262 270 270 278 297 308 315 322
190 197 202 195 188 188 189 190 191 191 191 191 191 191 191 192 202 212 214 214 215 216 217 218 219 220 221 221 220 217 214 210 211 215 216 219 225 228 230 226 219 218 221 224 228 225 220 222 221 215 215 214 213 216 214 214 216 216 224 227 221 228 228 218 216 215 218 222 222 229 219 196 210 220 219 233 238 234 237 244 256 276 286 291 307
186 194 199 193 188 189 190 191 192 192 192 192 192 192 192 193 201 210 213 213 214 215 216 216 217 218 219 220 220 215 212 211 213 217 218 218 222 225 228 230 223 212 212 218 225 229 228 227 226 219 214 214 213 215 215 214 215 215 222 228 224 229 233 225 222 223 222 227 231 239 240 223 220 229 229 231 240 243 247 263 272 264 266 276 278
187 193 197 193 190 189 190 192 193 194 194 193 193 192 193 197 202 208 211 213 213 213 214 216 216 217 218 219 219 214 211 212 213 217 219 218 222 224 223 225 225 215 209 213 219 227 228 226 228 226 219 217 215 215 216 213 213 215 218 226 226 228 235 233 228 227 225 226 227 231 240 243 242 248 249 249 258 269 278 282 281 278 279 284 281
189 189 195 198 194 190 191 193 194 196 196 194 193 192 193 197 202 209 213 214 213 212 213 215 216 217 218 218 218 214 211 211 210 213 218 217 218 222 221 218 220 216 212 213 213 219 226 224 224 225 224 224 221 217 217 215 213 215 218 224 229 229 232 235 238 235 230 229 228 225 228 235 239 242 240 240 254 269 280 278 275 285 291 290 292
189 184 193 205 201 193 192 194 194 195 196 195 194 194 194 195 199 205 209 210 211 212 213 215 216 217 217 217 217 214 211 211 211 211 216 218 216 217 218 215 214 213 214 218 215 215 222 224 222 221 220 223 225 222 219 218 215 216 221 224 229 233 235 238 243 238 229 230 234 232 231 234 235 237 239 236 241 256 267 268 264 275 286 291 295
192 185 189 201 206 200 194 194 193 193 194 194 195 195 195 195 197 200 203 206 209 212 214 215 215 216 216 217 217 216 213 211 211 213 215 218 217 216 216 214 213 212 212 218 220 217 220 224 222 218 215 215 221 224 221 221 220 219 223 225 224 232 238 240 244 239 230 230 235 237 238 239 239 241 244 243 241 249 259 263 261 263 269 277 284
195 192 189 196 209 207 197 192 192 192 193 194 195 196 195 195 196 196 199 203 206 208 212 214 214 214 216 217 218 217 215 212 211 213 215 217 218 218 215 212 212 214 214 216 220 220 219 221 220 215 213 211 214 222 222 222 225 224 226 229 226 230 238 240 243 244 236 232 235 240 242 243 243 245 246 244 243 246 251 257 260 261 262 265 272
199 199 193 194 207 209 197 191 191 192 193 194 194 196 197 196 195 194 196 201 203 203 208 212 213 214 215 217 217 216 217 216 212 213 216 215 218 220 217 214 212 213 217 218 219 221 221 222 219 215 216 214 214 222 222 220 226 228 227 230 231 234 238 240 242 248 248 242 240 242 243 244 245 246 251 249 243 242 243 246 250 253 257 260 265
201 203 199 197 203 204 195 190 191 192 193 193 194 196 197 196 195 195 196 198 198 197 202 210 213 214 214 215 215 215 216 216 213 213 214 212 214 219 219 218 215 211 216 220 219 220 221 223 221 218 221 222 220 226 227 222 227 232 230 229 231 235 239 241 244 248 251 251 246 244 243 242 240 242 250 253 248 247 249 249 252 258 265 270 271
198 202 203 200 198 196 195 192 191 192 193 194 194 195 197 197 196 197 195 194 194 193 198 208 212 211 212 213 214 213 212 214 213 210 211 211 209 212 217 219 217 209 209 217 220 219 220 224 223 221 224 227 226 229 230 226 226 232 234 232 231 235 240 243 246 247 247 249 248 247 245 241 237 237 245 252 249 250 255 258 263 270 277 282 285
193 199 205 205 196 191 194 194 192 193 193 193 194 195 196 198 197 197 195 192 192 191 194 204 208 207 209 213 214 212 210 212 212 208 207 210 206 205 211 217 218 211 205 210 218 220 221 224 226 224 226 230 230 231 232 229 226 229 236 237 234 236 241 244 246 248 250 250 249 248 246 243 240 237 240 245 247 250 259 266 272 277 280 280 284
184 195 206 208 193 184 188 192 192 193 193 193 195 195 196 198 197 197 195 192 192 190 191 198 202 202 207 212 214 213 210 210 213 209 204 205 204 202 206 212 216 213 206 205 213 219 222 224 226 227 228 231 232 233 234 233 228 225 232 239 237 235 240 244 245 248 250 249 249 249 247 245 245 244 242 241 245 253 262 271 277 281 279 277 277
180 196 200 203 190 180 186 190 190 193 194 194 196 196 196 197 196 196 196 194 192 191 190 194 198 200 206 213 215 214 211 208 211 211 204 201 203 202 202 206 211 213 209 206 208 215 221 224 226 228 229 231 233 234 234 234 232 227 228 236 239 236 237 241 244 245 245 242 242 245 247 247 248 250 249 246 246 253 262 269 274 277 275 274 275
187 195 195 198 195 187 188 190 191 194 195 196 197 196 196 196 195 195 196 195 193 192 191 193 197 201 207 213 213 213 211 207 209 210 206 201 201 202 201 203 208 211 210 207 206 209 216 222 226 228 228 230 233 234 234 234 234 232 229 233 240 241 239 238 241 243 241 240 240 240 242 245 249 253 256 255 253 256 263 268 271 273 272 273 276
175 186 191 194 197 194 191 192 193 196 197 197 197 196 196 196 195 194 195 194 193 193 192 192 197 203 207 210 212 212 210 207 206 209 208 202 200 201 201 201 206 210 210 208 207 206 210 217 224 227 227 229 231 233 235 235 235 235 234 234 238 243 242 238 239 241 239 239 242 244 243 243 246 253 258 261 262 264 268 271 271 271 270 272 274
4 338 242 203 203 203 198 196 197 198 199 200 199 198 197 197 196 195 194 194 193 193 194 193 196 202 205 208 211 211 210 208 206 210 211 206 201 201 203 202 204 209 212 211 208 206 207 212 218 223 227 229 230 232 235 236 235 235 237 237 237 241 244 242 242 243 242 240 242 246 249 247 247 253 260 264 267 269 270 273 274 273 272 273 273
334 335 331 310 250 221 208 205 204 203 202 202 201 200 198 198 198 196 194 194 193 193 194 193 195 200 203 207 210 210 210 209 209 212 214 212 206 203 203 203 203 208 214 215 212 210 208 209 212 217 222 227 229 232 236 238 237 235 236 238 237 238 242 244 245 245 246 247 247 246 247 249 252 258 263 267 268 268 270 271 273 274 273 274 274
313 317 315 305 282 250 227 217 213 210 207 205 203 201 200 199 198 196 194 193 194 194 194 193 195 199 203 206 210 211 210 210 211 213 215 215 211 207 206 206 205 210 216 218 217 215 212 210 210 212 217 221 224 231 236 238 237 236 234 233 234 235 237 241 245 247 248 250 251 251 249 248 251 257 264 269 271 272 274 273 272 272 272 273 275
304 306 304 300 297 286 263 239 225 219 215 210 205 203 201 199 197 195 194 194 194 194 194 193 194 198 202 205 208 211 212 211 212 214 215 216 214 212 213 212 211 213 218 221 219 218 217 217 214 212 213 216 219 228 237 239 236 234 232 229 230 230 230 233 239 245 248 250 251 253 254 254 254 257 262 267 271 274 276 277 277 276 276 276 275
304 303 301 298 296 288 273 259 244 231 221 213 208 204 200 197 195 194 193 194 195 193 194 193 193 197 202 203 204 209 212 213 212 213 215 216 216 215 216 217 216 217 222 225 223 221 223 225 223 217 214 216 219 225 235 240 237 232 230 228 227 227 229 230 233 239 245 249 251 252 254 256 257 259 261 264 269 272 273 275 277 278 279 279 278
309 308 304 301 297 288 276 266 257 242 225 215 209 204 199 196 194 193 192 193 194 193 193 193 194 198 203 204 201 205 211 214 213 213 215 216 217 217 218 219 219 218 221 227 227 226 227 229 230 227 223 221 223 226 232 240 242 236 231 228 228 228 230 233 236 240 244 247 250 252 255 257 258 259 261 264 266 269 270 270 271 273 275 275 275
311 307 304 302 298 293 286 274 259 244 227 215 208 203 198 195 193 192 191 191 193 193 193 195 197 199 204 207 206 207 211 215 215 214 215 216 217 218 219 221 221 219 218 224 228 229 230 232 233 233 232 230 229 232 237 241 244 243 238 234 232 231 232 234 237 240 244 246 249 251 253 256 258 260 262 263 265 267 268 267 266 267 267 265 265
312 308 306 305 303 298 292 280 263 244 227 215 206 199 196 194 192 191 190 190 192 192 194 200 203 203 207 211 212 213 215 217 216 215 216 217 218 219 220 222 223 222 218 219 225 228 230 232 235 237 238 237 236 237 241 244 245 246 245 242 240 238 237 237 238 240 243 246 249 251 253 255 257 260 262 264 265 266 267 267 266 266 264 264 266
313 310 307 306 307 303 293 280 263 244 228 215 204 197 195 194 191 189 189 190 192 194 199 206 206 205 209 213 213 215 218 218 218 217 217 217 219 220 221 223 225 225 223 219 220 224 227 231 235 237 240 242 240 238 242 245 246 246 246 245 244 244 242 241 241 242 244 246 248 251 253 254 256 258 261 263 264 265 266 267 266 265 263 262 265
316 313 310 309 308 304 293 276 258 243 227 213 203 197 194 194 191 188 189 192 196 199 202 205 205 205 210 212 212 215 218 219 219 219 218 218 219 219 221 224 225 227 227 223 221 222 225 228 231 232 234 239 240 239 240 244 247 247 246 245 243 243 243 243 243 244 245 247 249 250 252 254 256 257 259 261 262 263 265 265 264 263 262 260 259
315 312 313 311 306 300 291 272 254 239 222 209 202 196 195 195 191 189 194 197 198 198 197 199 204 207 209 209 209 213 217 218 218 219 218 218 219 219 220 223 224 225 225 223 221 222 224 226 228 227 227 231 236 239 240 243 247 247 245 243 241 241 242 243 244 245 245 246 248 250 253 254 255 256 257 258 260 261 262 262 262 262 260 257 254
316 313 317 315 305 297 285 266 248 232 215 207 201 197 196 195 192 194 200 199 195 192 193 200 206 205 204 205 206 211 215 214 215 219 219 218 220 220 220 222 222 222 222 221 220 220 220 223 226 227 226 226 230 238 241 243 245 246 245 243 241 241 242 241 243 245 246 246 247 249 252 254 256 257 257 257 258 259 258 258 260 261 259 256 254
321 315 316 313 303 294 279 257 240 225 211 204 200 196 197 196 195 198 201 195 191 192 197 203 206 203 201 203 205 210 213 209 210 217 219 218 219 218 219 221 221 218 218 219 221 220 219 219 223 225 225 224 225 232 239 243 244 245 246 244 242 241 242 241 240 242 245 246 245 246 248 252 255 257 257 257 257 257 255 255 257 257 255 254 255
332 314 301 304 301 286 267 247 233 219 205 200 198 195 196 197 198 201 199 192 190 193 196 201 204 202 200 198 200 208 212 206 206 214 216 216 217 216 215 218 219 216 214 214 217 220 220 219 219 221 223 225 226 228 235 241 244 244 246 245 242 238 238 238 237 236 238 242 244 243 244 247 250 253 254 256 255 253 252 252 252 251 251 252 254
353 325 292 317 318 279 248 240 224 209 199 198 198 197 197 199 200 199 195 191 189 190 194 200 202 200 198 195 196 204 208 203 201 210 215 215 215 215 213 214 214 212 210 209 211 216 219 219 219 220 222 225 227 228 232 238 242 243 245 247 244 239 234 234 234 231 228 230 235 238 240 242 245 248 250 252 252 250 248 247 246 246 247 249 252
12 7 328 345 347 288 242 255 219 202 198 198 200 200 199 200 199 194 191 189 187 190 196 198 197 196 194 191 188 193 201 200 198 205 213 214 213 213 212 210 209 207 207 208 208 211 215 216 217 220 221 222 223 224 227 234 240 241 243 245 244 240 233 229 230 229 225 224 226 230 234 237 240 243 245 247 249 247 244 244 245 245 246 249 252
22 34 48 30 24 32 220 254 184 185 191 197 200 202 201 200 197 194 191 187 186 191 195 192 188 188 187 185 184 187 193 195 194 197 204 209 210 211 209 207 206 206 207 209 209 209 211 212 214 218 219 219 220 221 223 229 235 237 238 237 237 237 231 224 222 223 225 226 227 227 228 231 235 238 241 244 247 247 245 244 244 245 246 247 246
25 38 60 65 47 45 59 82 121 165 186 195 199 203 204 199 195 192 189 184 183 189 191 184 181 183 183 183 186 187 188 190 190 191 194 199 202 203 204 207 209 207 206 208 209 208 209 211 212 215 216 217 220 221 221 225 231 235 234 232 232 234 230 221 217 218 222 225 228 229 228 230 232 235 239 242 245 246 243 241 242 243 242 239 238
23 34 52 67 64 57 61 68 80 130 168 180 185 193 197 194 190 188 186 183 184 188 186 181 178 180 180 181 183 185 187 187 187 188 191 195 197 198 200 204 209 209 207 207 209 209 211 212 213 215 218 219 221 222 222 224 230 235 235 232 231 233 231 223 220 222 222 223 227 230 229 229 231 233 236 240 243 243 241 239 240 241 239 237 238
31 35 47 63 70 69 70 73 74 83 109 136 158 174 183 186 185 185 185 184 185 184 182 180 177 176 178 180 180 181 186 187 186 190 196 197 197 198 197 199 206 211 209 206 208 211 214 216 216 217 221 222 224 227 226 224 228 233 236 235 232 229 228 223 220 221 221 220 226 229 227 228 231 232 233 237 240 241 241 240 241 241 239 237 235
33 40 47 55 61 66 71 72 66 64 91 117 128 145 163 175 180 184 185 184 182 180 178 178 176 175 178 181 179 180 187 188 187 193 201 202 201 201 201 201 207 214 212 209 209 211 214 218 220 222 224 224 225 230 229 225 225 227 231 235 232 228 228 225 217 217 218 218 224 228 227 228 230 231 232 236 238 240 241 242 242 241 238 234 233